Oakland, CA

5:04 PM PDT on August 17, 2017 (GMT -0700)
Highland Terrace | | Change Station

Elev 150 ft 37.79 °N, 122.23 °W | Updated 4 minutes ago

Clear
Clear
71.8 °F
Feels Like 75 °F
N
4.0
Wind Variable Wind from North
Gusts 11.0 mph

Today
High -- | Low -- °F
--% Chance of Precip.
Yesterday
High -- | Low -- °F
Precip. -- in
Pressure 29.97 in
Visibility 10.0 miles
Clouds Clear
Heat Index 75 °F
Dew Point 60 °F
Humidity 66%
Rainfall 0.00 in
Snow Depth Not available.
6:26 AM 7:58 PM
Waning Crescent, 18% visible
METAR KOAK 172353Z 29016KT 10SM CLR 21/14 A2997 RMK AO2 SLP148 T02060144 10217 20183 57013
Pressure 29.97 in
Visibility 10.0 miles
Clouds Clear
Heat Index 75 °F
Dew Point 60 °F
Humidity 66%
Rainfall 0.00 in
Snow Depth Not available.
6:26 AM 7:58 PM
Waning Crescent, 18% visible
METAR KOAK 172353Z 29016KT 10SM CLR 21/14 A2997 RMK AO2 SLP148 T02060144 10217 20183 57013

Get Severe Weather Alerts

Thanks for signing up!

Be on the lookout for a verification email in your inbox.

You'll start receiving the daily forecast at 6 AM.

×

10-Day Weather Forecast

Almanac

Astronomy

Aug. 17, 2017 Rise Set
Actual Time
Civil Twilight
Nautical Twilight
Astronomical Twilight
Moon
Length of Visible Light
Length of Day
Tomorrow will be .
, % of the Moon is Illuminated

Today's Extremes

State Highs State Lows

Community

WunderPhotos

Category 6

Welcome to Category 6. This is the collective home for Weather Underground's featured writeups by Dr. Jeff Masters (right), Bob Henson (left), Chris Burt, and other regular contributors.

Nearby

Air Quality

  Air Quality AQ Index Pollutant
Not available.

Snow Depth

Station Depth Elevation

Earthquake Activity

City Distance Mag. Time & Date
Minimum magnitude displayed is 2.5.

Coastal Water Temperatures

Place Temperature

Stations

Nearby Weather Stations

Station Location Temp. Windchill Dew Point Humidity Wind Precip. Elev Updated Type
                   

Watches & Warnings

There are currently no watches in effect.